owner,sensor,date,latitude,longitude,vertical_datum,sea_water_practical_salinity,qcFlag 
ENP,ioos.station.NOAA.NDBC:PKYF1:1,2016-06-01T00:00:00Z,24.9180,-80.7470,1.5,38.6,1111122 
ENP,ioos.station.NOAA.NDBC:PKYF1:1,2016-06-01T01:00:00Z,24.9180,-80.7470,1.5,38.6,1111122 
ENP,ioos.station.NOAA.NDBC:PKYF1:1,2016-06-01T04:00:00Z,24.9180,-80.7470,1.5,38.67,1111122 
ENP,ioos.station.NOAA.NDBC:PKYF1:1,2016-06-01T07:00:00Z,24.9180,-80.7470,1.5,38.75,1111122 
ENP,ioos.station.NOAA.NDBC:PKYF1:1,2016-06-01T08:00:00Z,24.9180,-80.7470,1.5,38.75,1111122 
ENP,ioos.station.NOAA.NDBC:PKYF1:1,2016-06-01T09:00:00Z,24.9180,-80.7470,1.5,38.75,1111122 
ENP,ioos.station.NOAA.NDBC:PKYF1:1,2016-06-01T10:00:00Z,24.9180,-80.7470,1.5,38.75,1111122 
ENP,ioos.station.NOAA.NDBC:PKYF1:1,2016-06-01T11:00:00Z,24.9180,-80.7470,1.5,38.75,1111122 
ENP,ioos.station.NOAA.NDBC:PKYF1:1,2016-06-01T12:00:00Z,24.9180,-80.7470,1.5,38.75,1111122 
ENP,ioos.station.NOAA.NDBC:PKYF1:1,2016-06-01T13:00:00Z,24.9180,-80.7470,1.5,38.75,1111122 
ENP,ioos.station.NOAA.NDBC:PKYF1:1,2016-06-01T14:00:00Z,24.9180,-80.7470,1.5,38.6,1111122 
ENP,ioos.station.NOAA.NDBC:PKYF1:1,2016-06-01T15:00:00Z,24.9180,-80.7470,1.5,38.52,1111122 
ENP,ioos.station.NOAA.NDBC:PKYF1:1,2016-06-01T16:00:00Z,24.9180,-80.7470,1.5,38.6,1111122 
ENP,ioos.station.NOAA.NDBC:PKYF1:1,2016-06-01T17:00:00Z,24.9180,-80.7470,1.5,38.6,1111122 
ENP,ioos.station.NOAA.NDBC:PKYF1:1,2016-06-01T18:00:00Z,24.9180,-80.7470,1.5,38.52,1111122 
ENP,ioos.station.NOAA.NDBC:PKYF1:1,2016-06-01T19:00:00Z,24.9180,-80.7470,1.5,38.6,1111122 
ENP,ioos.station.NOAA.NDBC:PKYF1:1,2016-06-01T20:00:00Z,24.9180,-80.7470,1.5,38.52,1111122 
ENP,ioos.station.NOAA.NDBC:PKYF1:1,2016-06-01T21:00:00Z,24.9180,-80.7470,1.5,38.52,1111122 
ENP,ioos.station.NOAA.NDBC:PKYF1:1,2016-06-01T22:00:00Z,24.9180,-80.7470,1.5,38.67,1111122 
ENP,ioos.station.NOAA.NDBC:PKYF1:1,2016-06-01T23:00:00Z,24.9180,-80.7470,1.5,38.6,1111122 
ENP,ioos.station.NOAA.NDBC:PKYF1:1,2016-06-02T00:00:00Z,24.9180,-80.7470,1.5,38.6,1111122 
ENP,ioos.station.NOAA.NDBC:PKYF1:1,2016-06-02T01:00:00Z,24.9180,-80.7470,1.5,38.6,1111122 
ENP,ioos.station.NOAA.NDBC:PKYF1:1,2016-06-02T04:00:00Z,24.9180,-80.7470,1.5,38.52,1111122 
ENP,ioos.station.NOAA.NDBC:PKYF1:1,2016-06-02T07:00:00Z,24.9180,-80.7470,1.5,38.37,1111122 
ENP,ioos.station.NOAA.NDBC:PKYF1:1,2016-06-02T08:00:00Z,24.9180,-80.7470,1.5,38.52,1111122 
ENP,ioos.station.NOAA.NDBC:PKYF1:1,2016-06-02T09:00:00Z,24.9180,-80.7470,1.5,38.45,1111122 
ENP,ioos.station.NOAA.NDBC:PKYF1:1,2016-06-02T11:00:00Z,24.9180,-80.7470,1.5,38.67,1111122 
ENP,ioos.station.NOAA.NDBC:PKYF1:1,2016-06-02T12:00:00Z,24.9180,-80.7470,1.5,38.6,1111122 
ENP,ioos.station.NOAA.NDBC:PKYF1:1,2016-06-02T13:00:00Z,24.9180,-80.7470,1.5,38.67,1111122 
ENP,ioos.station.NOAA.NDBC:PKYF1:1,2016-06-02T14:00:00Z,24.9180,-80.7470,1.5,38.67,1111122 
ENP,ioos.station.NOAA.NDBC:PKYF1:1,2016-06-02T15:00:00Z,24.9180,-80.7470,1.5,38.67,1111122 
ENP,ioos.station.NOAA.NDBC:PKYF1:1,2016-06-02T16:00:00Z,24.9180,-80.7470,1.5,38.67,1111122 
ENP,ioos.station.NOAA.NDBC:PKYF1:1,2016-06-02T17:00:00Z,24.9180,-80.7470,1.5,38.67,1111122 
ENP,ioos.station.NOAA.NDBC:PKYF1:1,2016-06-02T18:00:00Z,24.9180,-80.7470,1.5,38.67,1111122 
ENP,ioos.station.NOAA.NDBC:PKYF1:1,2016-06-02T19:00:00Z,24.9180,-80.7470,1.5,38.6,1111122 
ENP,ioos.station.NOAA.NDBC:PKYF1:1,2016-06-02T20:00:00Z,24.9180,-80.7470,1.5,38.52,1111122 
ENP,ioos.station.NOAA.NDBC:PKYF1:1,2016-06-02T21:00:00Z,24.9180,-80.7470,1.5,38.6,1111122 
ENP,ioos.station.NOAA.NDBC:PKYF1:1,2016-06-02T22:00:00Z,24.9180,-80.7470,1.5,38.52,1111122 
ENP,ioos.station.NOAA.NDBC:PKYF1:1,2016-06-02T23:00:00Z,24.9180,-80.7470,1.5,38.6,1111122 
ENP,ioos.station.NOAA.NDBC:PKYF1:1,2016-06-03T00:00:00Z,24.9180,-80.7470,1.5,38.6,1111122 
ENP,ioos.station.NOAA.NDBC:PKYF1:1,2016-06-03T01:00:00Z,24.9180,-80.7470,1.5,38.6,1111122 
ENP,ioos.station.NOAA.NDBC:PKYF1:1,2016-06-03T04:00:00Z,24.9180,-80.7470,1.5,38.67,1111122 
ENP,ioos.station.NOAA.NDBC:PKYF1:1,2016-06-03T05:00:00Z,24.9180,-80.7470,1.5,38.6,1111122 
ENP,ioos.station.NOAA.NDBC:PKYF1:1,2016-06-03T07:00:00Z,24.9180,-80.7470,1.5,38.6,1111122 
ENP,ioos.station.NOAA.NDBC:PKYF1:1,2016-06-03T08:00:00Z,24.9180,-80.7470,1.5,38.52,1111122 
ENP,ioos.station.NOAA.NDBC:PKYF1:1,2016-06-03T09:00:00Z,24.9180,-80.7470,1.5,38.67,1111122 
ENP,ioos.station.NOAA.NDBC:PKYF1:1,2016-06-03T10:00:00Z,24.9180,-80.7470,1.5,38.6,1111122 
ENP,ioos.station.NOAA.NDBC:PKYF1:1,2016-06-03T11:00:00Z,24.9180,-80.7470,1.5,38.67,1111122 
ENP,ioos.station.NOAA.NDBC:PKYF1:1,2016-06-03T12:00:00Z,24.9180,-80.7470,1.5,38.67,1111122 
ENP,ioos.station.NOAA.NDBC:PKYF1:1,2016-06-03T13:00:00Z,24.9180,-80.7470,1.5,38.75,1111122 
ENP,ioos.station.NOAA.NDBC:PKYF1:1,2016-06-03T14:00:00Z,24.9180,-80.7470,1.5,38.75,1111122 
ENP,ioos.station.NOAA.NDBC:PKYF1:1,2016-06-03T15:00:00Z,24.9180,-80.7470,1.5,38.75,1111122 
ENP,ioos.station.NOAA.NDBC:PKYF1:1,2016-06-03T16:00:00Z,24.9180,-80.7470,1.5,38.75,1111122 
ENP,ioos.station.NOAA.NDBC:PKYF1:1,2016-06-03T17:00:00Z,24.9180,-80.7470,1.5,38.75,1111122 
ENP,ioos.station.NOAA.NDBC:PKYF1:1,2016-06-03T18:00:00Z,24.9180,-80.7470,1.5,38.75,1111122 
ENP,ioos.station.NOAA.NDBC:PKYF1:1,2016-06-03T19:00:00Z,24.9180,-80.7470,1.5,38.75,1111122 
ENP,ioos.station.NOAA.NDBC:PKYF1:1,2016-06-03T20:00:00Z,24.9180,-80.7470,1.5,38.67,1111122 
ENP,ioos.station.NOAA.NDBC:PKYF1:1,2016-06-03T21:00:00Z,24.9180,-80.7470,1.5,38.67,1111122 
ENP,ioos.station.NOAA.NDBC:PKYF1:1,2016-06-03T22:00:00Z,24.9180,-80.7470,1.5,38.6,1111122 
ENP,ioos.station.NOAA.NDBC:PKYF1:1,2016-06-03T23:00:00Z,24.9180,-80.7470,1.5,38.6,1111122 
ENP,ioos.station.NOAA.NDBC:PKYF1:1,2016-06-04T00:00:00Z,24.9180,-80.7470,1.5,38.67,1111122 
ENP,ioos.station.NOAA.NDBC:PKYF1:1,2016-06-04T01:00:00Z,24.9180,-80.7470,1.5,38.67,1111122 
ENP,ioos.station.NOAA.NDBC:PKYF1:1,2016-06-04T04:00:00Z,24.9180,-80.7470,1.5,38.75,1111122 
ENP,ioos.station.NOAA.NDBC:PKYF1:1,2016-06-04T07:00:00Z,24.9180,-80.7470,1.5,38.6,1111122 
ENP,ioos.station.NOAA.NDBC:PKYF1:1,2016-06-04T08:00:00Z,24.9180,-80.7470,1.5,38.6,1111122 
ENP,ioos.station.NOAA.NDBC:PKYF1:1,2016-06-04T09:00:00Z,24.9180,-80.7470,1.5,38.67,1111122 
ENP,ioos.station.NOAA.NDBC:PKYF1:1,2016-06-04T10:00:00Z,24.9180,-80.7470,1.5,38.67,1111122 
ENP,ioos.station.NOAA.NDBC:PKYF1:1,2016-06-04T11:00:00Z,24.9180,-80.7470,1.5,38.67,1111122 
ENP,ioos.station.NOAA.NDBC:PKYF1:1,2016-06-04T12:00:00Z,24.9180,-80.7470,1.5,38.6,1111122 
ENP,ioos.station.NOAA.NDBC:PKYF1:1,2016-06-04T13:00:00Z,24.9180,-80.7470,1.5,38.67,1111122 
ENP,ioos.station.NOAA.NDBC:PKYF1:1,2016-06-04T14:00:00Z,24.9180,-80.7470,1.5,38.67,1111122 
ENP,ioos.station.NOAA.NDBC:PKYF1:1,2016-06-04T15:00:00Z,24.9180,-80.7470,1.5,38.67,1111122 
ENP,ioos.station.NOAA.NDBC:PKYF1:1,2016-06-04T16:00:00Z,24.9180,-80.7470,1.5,38.6,1111122 
ENP,ioos.station.NOAA.NDBC:PKYF1:1,2016-06-04T17:00:00Z,24.9180,-80.7470,1.5,38.67,1111122 
ENP,ioos.station.NOAA.NDBC:PKYF1:1,2016-06-04T18:00:00Z,24.9180,-80.7470,1.5,38.67,1111122 
ENP,ioos.station.NOAA.NDBC:PKYF1:1,2016-06-04T19:00:00Z,24.9180,-80.7470,1.5,38.67,1111122 
ENP,ioos.station.NOAA.NDBC:PKYF1:1,2016-06-04T20:00:00Z,24.9180,-80.7470,1.5,38.67,1111122 
ENP,ioos.station.NOAA.NDBC:PKYF1:1,2016-06-04T21:00:00Z,24.9180,-80.7470,1.5,38.6,1111122 
ENP,ioos.station.NOAA.NDBC:PKYF1:1,2016-06-04T22:00:00Z,24.9180,-80.7470,1.5,38.6,1111122 
ENP,ioos.station.NOAA.NDBC:PKYF1:1,2016-06-04T23:00:00Z,24.9180,-80.7470,1.5,38.67,1111122 
ENP,ioos.station.NOAA.NDBC:PKYF1:1,2016-06-05T00:00:00Z,24.9180,-80.7470,1.5,38.67,1111122 
ENP,ioos.station.NOAA.NDBC:PKYF1:1,2016-06-05T01:00:00Z,24.9180,-80.7470,1.5,38.75,1111122 
ENP,ioos.station.NOAA.NDBC:PKYF1:1,2016-06-05T04:00:00Z,24.9180,-80.7470,1.5,38.67,1111122 
ENP,ioos.station.NOAA.NDBC:PKYF1:1,2016-06-05T07:00:00Z,24.9180,-80.7470,1.5,38.67,1111122 
ENP,ioos.station.NOAA.NDBC:PKYF1:1,2016-06-05T08:00:00Z,24.9180,-80.7470,1.5,38.75,1111122 
ENP,ioos.station.NOAA.NDBC:PKYF1:1,2016-06-05T09:00:00Z,24.9180,-80.7470,1.5,38.75,1111122 
ENP,ioos.station.NOAA.NDBC:PKYF1:1,2016-06-05T11:00:00Z,24.9180,-80.7470,1.5,38.82,1111122 
ENP,ioos.station.NOAA.NDBC:PKYF1:1,2016-06-05T12:00:00Z,24.9180,-80.7470,1.5,38.75,1111122 
ENP,ioos.station.NOAA.NDBC:PKYF1:1,2016-06-05T13:00:00Z,24.9180,-80.7470,1.5,38.75,1111122 
ENP,ioos.station.NOAA.NDBC:PKYF1:1,2016-06-05T14:00:00Z,24.9180,-80.7470,1.5,38.75,1111122 
ENP,ioos.station.NOAA.NDBC:PKYF1:1,2016-06-05T15:00:00Z,24.9180,-80.7470,1.5,38.75,1111122 
ENP,ioos.station.NOAA.NDBC:PKYF1:1,2016-06-05T16:00:00Z,24.9180,-80.7470,1.5,38.75,1111122 
ENP,ioos.station.NOAA.NDBC:PKYF1:1,2016-06-05T17:00:00Z,24.9180,-80.7470,1.5,38.67,1111122 
ENP,ioos.station.NOAA.NDBC:PKYF1:1,2016-06-05T18:00:00Z,24.9180,-80.7470,1.5,38.75,1111122 
ENP,ioos.station.NOAA.NDBC:PKYF1:1,2016-06-05T19:00:00Z,24.9180,-80.7470,1.5,38.75,1111122 
ENP,ioos.station.NOAA.NDBC:PKYF1:1,2016-06-05T20:00:00Z,24.9180,-80.7470,1.5,38.67,1111122 
ENP,ioos.station.NOAA.NDBC:PKYF1:1,2016-06-05T21:00:00Z,24.9180,-80.7470,1.5,38.67,1111122 
ENP,ioos.station.NOAA.NDBC:PKYF1:1,2016-06-05T22:00:00Z,24.9180,-80.7470,1.5,38.75,1111122 
ENP,ioos.station.NOAA.NDBC:PKYF1:1,2016-06-05T23:00:00Z,24.9180,-80.7470,1.5,38.75,1111122 
ENP,ioos.station.NOAA.NDBC:PKYF1:1,2016-06-06T00:00:00Z,24.9180,-80.7470,1.5,38.75,1111122 
ENP,ioos.station.NOAA.NDBC:PKYF1:1,2016-06-06T01:00:00Z,24.9180,-80.7470,1.5,38.75,1111122 
ENP,ioos.station.NOAA.NDBC:PKYF1:1,2016-06-06T02:00:00Z,24.9180,-80.7470,1.5,38.75,1111122 
ENP,ioos.station.NOAA.NDBC:PKYF1:1,2016-06-06T04:00:00Z,24.9180,-80.7470,1.5,38.67,1111122 
ENP,ioos.station.NOAA.NDBC:PKYF1:1,2016-06-06T05:00:00Z,24.9180,-80.7470,1.5,38.67,1111122 
ENP,ioos.station.NOAA.NDBC:PKYF1:1,2016-06-06T07:00:00Z,24.9180,-80.7470,1.5,38.67,1111122 
ENP,ioos.station.NOAA.NDBC:PKYF1:1,2016-06-06T08:00:00Z,24.9180,-80.7470,1.5,38.75,1111122 
ENP,ioos.station.NOAA.NDBC:PKYF1:1,2016-06-06T09:00:00Z,24.9180,-80.7470,1.5,38.75,1111122 
ENP,ioos.station.NOAA.NDBC:PKYF1:1,2016-06-06T10:00:00Z,24.9180,-80.7470,1.5,38.82,1111122 
ENP,ioos.station.NOAA.NDBC:PKYF1:1,2016-06-06T11:00:00Z,24.9180,-80.7470,1.5,38.9,1111122 
ENP,ioos.station.NOAA.NDBC:PKYF1:1,2016-06-06T12:00:00Z,24.9180,-80.7470,1.5,38.82,1111122 
ENP,ioos.station.NOAA.NDBC:PKYF1:1,2016-06-06T13:00:00Z,24.9180,-80.7470,1.5,38.75,1111122 
ENP,ioos.station.NOAA.NDBC:PKYF1:1,2016-06-06T14:00:00Z,24.9180,-80.7470,1.5,38.67,1111122 
ENP,ioos.station.NOAA.NDBC:PKYF1:1,2016-06-06T15:00:00Z,24.9180,-80.7470,1.5,38.75,1111122 
ENP,ioos.station.NOAA.NDBC:PKYF1:1,2016-06-06T16:00:00Z,24.9180,-80.7470,1.5,38.82,1111122 
ENP,ioos.station.NOAA.NDBC:PKYF1:1,2016-06-06T17:00:00Z,24.9180,-80.7470,1.5,38.82,1111122 
ENP,ioos.station.NOAA.NDBC:PKYF1:1,2016-06-06T18:00:00Z,24.9180,-80.7470,1.5,38.9,1111122 
ENP,ioos.station.NOAA.NDBC:PKYF1:1,2016-06-06T19:00:00Z,24.9180,-80.7470,1.5,38.97,1111122 
ENP,ioos.station.NOAA.NDBC:PKYF1:1,2016-06-06T20:00:00Z,24.9180,-80.7470,1.5,38.97,1111122 
ENP,ioos.station.NOAA.NDBC:PKYF1:1,2016-06-06T22:00:00Z,24.9180,-80.7470,1.5,39.05,1111122 
ENP,ioos.station.NOAA.NDBC:PKYF1:1,2016-06-06T23:00:00Z,24.9180,-80.7470,1.5,38.97,1111122 
ENP,ioos.station.NOAA.NDBC:PKYF1:1,2016-06-07T00:00:00Z,24.9180,-80.7470,1.5,39.05,1111122 
ENP,ioos.station.NOAA.NDBC:PKYF1:1,2016-06-07T01:00:00Z,24.9180,-80.7470,1.5,39.05,1111122 
ENP,ioos.station.NOAA.NDBC:PKYF1:1,2016-06-07T04:00:00Z,24.9180,-80.7470,1.5,39.05,1111122 
ENP,ioos.station.NOAA.NDBC:PKYF1:1,2016-06-07T07:00:00Z,24.9180,-80.7470,1.5,39.2,1111122 
ENP,ioos.station.NOAA.NDBC:PKYF1:1,2016-06-07T08:00:00Z,24.9180,-80.7470,1.5,39.27,1111122 
ENP,ioos.station.NOAA.NDBC:PKYF1:1,2016-06-07T09:00:00Z,24.9180,-80.7470,1.5,39.2,1111122 
ENP,ioos.station.NOAA.NDBC:PKYF1:1,2016-06-07T10:00:00Z,24.9180,-80.7470,1.5,39.2,1111122 
ENP,ioos.station.NOAA.NDBC:PKYF1:1,2016-06-07T11:00:00Z,24.9180,-80.7470,1.5,39.2,1111122 
ENP,ioos.station.NOAA.NDBC:PKYF1:1,2016-06-07T12:00:00Z,24.9180,-80.7470,1.5,39.27,1111122 
ENP,ioos.station.NOAA.NDBC:PKYF1:1,2016-06-07T13:00:00Z,24.9180,-80.7470,1.5,39.27,1111122 
ENP,ioos.station.NOAA.NDBC:PKYF1:1,2016-06-07T14:00:00Z,24.9180,-80.7470,1.5,39.27,1111122 
ENP,ioos.station.NOAA.NDBC:PKYF1:1,2016-06-07T15:00:00Z,24.9180,-80.7470,1.5,38.82,1111122 
ENP,ioos.station.NOAA.NDBC:PKYF1:1,2016-06-07T16:00:00Z,24.9180,-80.7470,1.5,38.82,1111122 
ENP,ioos.station.NOAA.NDBC:PKYF1:1,2016-06-07T17:00:00Z,24.9180,-80.7470,1.5,38.52,1111122 
ENP,ioos.station.NOAA.NDBC:PKYF1:1,2016-06-07T18:00:00Z,24.9180,-80.7470,1.5,38.37,1111122 
ENP,ioos.station.NOAA.NDBC:PKYF1:1,2016-06-07T19:00:00Z,24.9180,-80.7470,1.5,38.07,1111122 
ENP,ioos.station.NOAA.NDBC:PKYF1:1,2016-06-07T20:00:00Z,24.9180,-80.7470,1.5,38.0,1111122 
ENP,ioos.station.NOAA.NDBC:PKYF1:1,2016-06-07T21:00:00Z,24.9180,-80.7470,1.5,38.07,1111122 
ENP,ioos.station.NOAA.NDBC:PKYF1:1,2016-06-07T22:00:00Z,24.9180,-80.7470,1.5,38.22,1111122 
ENP,ioos.station.NOAA.NDBC:PKYF1:1,2016-06-07T23:00:00Z,24.9180,-80.7470,1.5,38.22,1111122 
ENP,ioos.station.NOAA.NDBC:PKYF1:1,2016-06-08T00:00:00Z,24.9180,-80.7470,1.5,38.6,1111122 
ENP,ioos.station.NOAA.NDBC:PKYF1:1,2016-06-08T01:00:00Z,24.9180,-80.7470,1.5,38.82,1111122 
ENP,ioos.station.NOAA.NDBC:PKYF1:1,2016-06-08T04:00:00Z,24.9180,-80.7470,1.5,39.2,1111122 
ENP,ioos.station.NOAA.NDBC:PKYF1:1,2016-06-08T07:00:00Z,24.9180,-80.7470,1.5,38.45,1111122 
ENP,ioos.station.NOAA.NDBC:PKYF1:1,2016-06-08T08:00:00Z,24.9180,-80.7470,1.5,38.52,1111122 
ENP,ioos.station.NOAA.NDBC:PKYF1:1,2016-06-08T09:00:00Z,24.9180,-80.7470,1.5,38.45,1111122 
ENP,ioos.station.NOAA.NDBC:PKYF1:1,2016-06-08T10:00:00Z,24.9180,-80.7470,1.5,38.67,1111122 
ENP,ioos.station.NOAA.NDBC:PKYF1:1,2016-06-08T11:00:00Z,24.9180,-80.7470,1.5,38.82,1111122 
ENP,ioos.station.NOAA.NDBC:PKYF1:1,2016-06-08T12:00:00Z,24.9180,-80.7470,1.5,39.05,1111122 
ENP,ioos.station.NOAA.NDBC:PKYF1:1,2016-06-08T13:00:00Z,24.9180,-80.7470,1.5,39.2,1111122 
ENP,ioos.station.NOAA.NDBC:PKYF1:1,2016-06-08T14:00:00Z,24.9180,-80.7470,1.5,39.27,1111122 
ENP,ioos.station.NOAA.NDBC:PKYF1:1,2016-06-08T15:00:00Z,24.9180,-80.7470,1.5,38.6,1111122 
ENP,ioos.station.NOAA.NDBC:PKYF1:1,2016-06-08T16:00:00Z,24.9180,-80.7470,1.5,37.77,1111122 
ENP,ioos.station.NOAA.NDBC:PKYF1:1,2016-06-08T17:00:00Z,24.9180,-80.7470,1.5,36.8,1111122 
ENP,ioos.station.NOAA.NDBC:PKYF1:1,2016-06-08T18:00:00Z,24.9180,-80.7470,1.5,36.8,1111122 
ENP,ioos.station.NOAA.NDBC:PKYF1:1,2016-06-08T19:00:00Z,24.9180,-80.7470,1.5,36.8,1111122 
ENP,ioos.station.NOAA.NDBC:PKYF1:1,2016-06-08T20:00:00Z,24.9180,-80.7470,1.5,36.73,1111122 
ENP,ioos.station.NOAA.NDBC:PKYF1:1,2016-06-08T21:00:00Z,24.9180,-80.7470,1.5,36.58,1111122 
ENP,ioos.station.NOAA.NDBC:PKYF1:1,2016-06-08T22:00:00Z,24.9180,-80.7470,1.5,36.51,1111122 
ENP,ioos.station.NOAA.NDBC:PKYF1:1,2016-06-08T23:00:00Z,24.9180,-80.7470,1.5,37.7,1111122 
ENP,ioos.station.NOAA.NDBC:PKYF1:1,2016-06-09T00:00:00Z,24.9180,-80.7470,1.5,38.0,1111122 
ENP,ioos.station.NOAA.NDBC:PKYF1:1,2016-06-09T01:00:00Z,24.9180,-80.7470,1.5,38.15,1111122 
ENP,ioos.station.NOAA.NDBC:PKYF1:1,2016-06-09T04:00:00Z,24.9180,-80.7470,1.5,39.12,1111122 
ENP,ioos.station.NOAA.NDBC:PKYF1:1,2016-06-09T07:00:00Z,24.9180,-80.7470,1.5,39.35,1111122 
ENP,ioos.station.NOAA.NDBC:PKYF1:1,2016-06-09T08:00:00Z,24.9180,-80.7470,1.5,39.35,1111122 
ENP,ioos.station.NOAA.NDBC:PKYF1:1,2016-06-09T09:00:00Z,24.9180,-80.7470,1.5,39.27,1111122 
ENP,ioos.station.NOAA.NDBC:PKYF1:1,2016-06-09T10:00:00Z,24.9180,-80.7470,1.5,39.05,1111122 
ENP,ioos.station.NOAA.NDBC:PKYF1:1,2016-06-09T11:00:00Z,24.9180,-80.7470,1.5,38.97,1111122 
ENP,ioos.station.NOAA.NDBC:PKYF1:1,2016-06-09T12:00:00Z,24.9180,-80.7470,1.5,38.82,1111122 
ENP,ioos.station.NOAA.NDBC:PKYF1:1,2016-06-09T13:00:00Z,24.9180,-80.7470,1.5,38.67,1111122 
ENP,ioos.station.NOAA.NDBC:PKYF1:1,2016-06-09T14:00:00Z,24.9180,-80.7470,1.5,38.75,1111122 
ENP,ioos.station.NOAA.NDBC:PKYF1:1,2016-06-09T15:00:00Z,24.9180,-80.7470,1.5,38.67,1111122 
ENP,ioos.station.NOAA.NDBC:PKYF1:1,2016-06-09T16:00:00Z,24.9180,-80.7470,1.5,38.67,1111122 
ENP,ioos.station.NOAA.NDBC:PKYF1:1,2016-06-09T17:00:00Z,24.9180,-80.7470,1.5,38.75,1111122 
ENP,ioos.station.NOAA.NDBC:PKYF1:1,2016-06-09T18:00:00Z,24.9180,-80.7470,1.5,38.82,1111122 
ENP,ioos.station.NOAA.NDBC:PKYF1:1,2016-06-09T19:00:00Z,24.9180,-80.7470,1.5,38.82,1111122 
ENP,ioos.station.NOAA.NDBC:PKYF1:1,2016-06-09T20:00:00Z,24.9180,-80.7470,1.5,38.75,1111122 
ENP,ioos.station.NOAA.NDBC:PKYF1:1,2016-06-09T21:00:00Z,24.9180,-80.7470,1.5,38.67,1111122 
ENP,ioos.station.NOAA.NDBC:PKYF1:1,2016-06-09T22:00:00Z,24.9180,-80.7470,1.5,38.75,1111122 
ENP,ioos.station.NOAA.NDBC:PKYF1:1,2016-06-09T23:00:00Z,24.9180,-80.7470,1.5,38.82,1111122 
ENP,ioos.station.NOAA.NDBC:PKYF1:1,2016-06-10T00:00:00Z,24.9180,-80.7470,1.5,38.75,1111122 
ENP,ioos.station.NOAA.NDBC:PKYF1:1,2016-06-10T01:00:00Z,24.9180,-80.7470,1.5,38.75,1111122 
ENP,ioos.station.NOAA.NDBC:PKYF1:1,2016-06-10T04:00:00Z,24.9180,-80.7470,1.5,38.6,1111122 
ENP,ioos.station.NOAA.NDBC:PKYF1:1,2016-06-10T07:00:00Z,24.9180,-80.7470,1.5,38.6,1111122 
ENP,ioos.station.NOAA.NDBC:PKYF1:1,2016-06-10T08:00:00Z,24.9180,-80.7470,1.5,38.6,1111122 
ENP,ioos.station.NOAA.NDBC:PKYF1:1,2016-06-10T09:00:00Z,24.9180,-80.7470,1.5,38.67,1111122 
ENP,ioos.station.NOAA.NDBC:PKYF1:1,2016-06-10T10:00:00Z,24.9180,-80.7470,1.5,38.6,1111122 
ENP,ioos.station.NOAA.NDBC:PKYF1:1,2016-06-10T11:00:00Z,24.9180,-80.7470,1.5,38.67,1111122 
ENP,ioos.station.NOAA.NDBC:PKYF1:1,2016-06-10T12:00:00Z,24.9180,-80.7470,1.5,38.6,1111122 
ENP,ioos.station.NOAA.NDBC:PKYF1:1,2016-06-10T13:00:00Z,24.9180,-80.7470,1.5,38.52,1111122 
ENP,ioos.station.NOAA.NDBC:PKYF1:1,2016-06-10T14:00:00Z,24.9180,-80.7470,1.5,38.6,1111122 
ENP,ioos.station.NOAA.NDBC:PKYF1:1,2016-06-10T15:00:00Z,24.9180,-80.7470,1.5,38.6,1111122 
ENP,ioos.station.NOAA.NDBC:PKYF1:1,2016-06-10T16:00:00Z,24.9180,-80.7470,1.5,38.6,1111122 
ENP,ioos.station.NOAA.NDBC:PKYF1:1,2016-06-10T17:00:00Z,24.9180,-80.7470,1.5,38.6,1111122 
ENP,ioos.station.NOAA.NDBC:PKYF1:1,2016-06-10T18:00:00Z,24.9180,-80.7470,1.5,38.52,1111122 
ENP,ioos.station.NOAA.NDBC:PKYF1:1,2016-06-10T19:00:00Z,24.9180,-80.7470,1.5,38.15,1111122 
ENP,ioos.station.NOAA.NDBC:PKYF1:1,2016-06-10T20:00:00Z,24.9180,-80.7470,1.5,37.77,1111122 
ENP,ioos.station.NOAA.NDBC:PKYF1:1,2016-06-10T21:00:00Z,24.9180,-80.7470,1.5,37.7,1111122 
ENP,ioos.station.NOAA.NDBC:PKYF1:1,2016-06-10T22:00:00Z,24.9180,-80.7470,1.5,37.77,1111122 
ENP,ioos.station.NOAA.NDBC:PKYF1:1,2016-06-10T23:00:00Z,24.9180,-80.7470,1.5,38.15,1111122 
ENP,ioos.station.NOAA.NDBC:PKYF1:1,2016-06-11T00:00:00Z,24.9180,-80.7470,1.5,38.45,1111122 
ENP,ioos.station.NOAA.NDBC:PKYF1:1,2016-06-11T01:00:00Z,24.9180,-80.7470,1.5,38.6,1111122 
ENP,ioos.station.NOAA.NDBC:PKYF1:1,2016-06-11T04:00:00Z,24.9180,-80.7470,1.5,38.6,1111122 
ENP,ioos.station.NOAA.NDBC:PKYF1:1,2016-06-11T07:00:00Z,24.9180,-80.7470,1.5,38.6,1111122 
ENP,ioos.station.NOAA.NDBC:PKYF1:1,2016-06-11T08:00:00Z,24.9180,-80.7470,1.5,38.6,1111122 
ENP,ioos.station.NOAA.NDBC:PKYF1:1,2016-06-11T09:00:00Z,24.9180,-80.7470,1.5,38.6,1111122 
ENP,ioos.station.NOAA.NDBC:PKYF1:1,2016-06-11T10:00:00Z,24.9180,-80.7470,1.5,38.6,1111122 
ENP,ioos.station.NOAA.NDBC:PKYF1:1,2016-06-11T11:00:00Z,24.9180,-80.7470,1.5,38.6,1111122 
ENP,ioos.station.NOAA.NDBC:PKYF1:1,2016-06-11T12:00:00Z,24.9180,-80.7470,1.5,38.6,1111122 
ENP,ioos.station.NOAA.NDBC:PKYF1:1,2016-06-11T13:00:00Z,24.9180,-80.7470,1.5,38.52,1111122 
ENP,ioos.station.NOAA.NDBC:PKYF1:1,2016-06-11T14:00:00Z,24.9180,-80.7470,1.5,38.52,1111122 
ENP,ioos.station.NOAA.NDBC:PKYF1:1,2016-06-11T15:00:00Z,24.9180,-80.7470,1.5,38.52,1111122 
ENP,ioos.station.NOAA.NDBC:PKYF1:1,2016-06-11T16:00:00Z,24.9180,-80.7470,1.5,38.52,1111122 
ENP,ioos.station.NOAA.NDBC:PKYF1:1,2016-06-11T17:00:00Z,24.9180,-80.7470,1.5,38.52,1111122 
ENP,ioos.station.NOAA.NDBC:PKYF1:1,2016-06-11T18:00:00Z,24.9180,-80.7470,1.5,38.52,1111122 
ENP,ioos.station.NOAA.NDBC:PKYF1:1,2016-06-11T19:00:00Z,24.9180,-80.7470,1.5,38.52,1111122 
ENP,ioos.station.NOAA.NDBC:PKYF1:1,2016-06-11T20:00:00Z,24.9180,-80.7470,1.5,38.52,1111122 
ENP,ioos.station.NOAA.NDBC:PKYF1:1,2016-06-11T21:00:00Z,24.9180,-80.7470,1.5,38.45,1111122 
ENP,ioos.station.NOAA.NDBC:PKYF1:1,2016-06-11T22:00:00Z,24.9180,-80.7470,1.5,38.45,1111122 
ENP,ioos.station.NOAA.NDBC:PKYF1:1,2016-06-11T23:00:00Z,24.9180,-80.7470,1.5,38.52,1111122 
ENP,ioos.station.NOAA.NDBC:PKYF1:1,2016-06-12T00:00:00Z,24.9180,-80.7470,1.5,38.45,1111122 
ENP,ioos.station.NOAA.NDBC:PKYF1:1,2016-06-12T01:00:00Z,24.9180,-80.7470,1.5,38.45,1111122 
ENP,ioos.station.NOAA.NDBC:PKYF1:1,2016-06-12T04:00:00Z,24.9180,-80.7470,1.5,38.52,1111122 
ENP,ioos.station.NOAA.NDBC:PKYF1:1,2016-06-12T07:00:00Z,24.9180,-80.7470,1.5,38.6,1111122 
ENP,ioos.station.NOAA.NDBC:PKYF1:1,2016-06-12T08:00:00Z,24.9180,-80.7470,1.5,38.52,1111122 
ENP,ioos.station.NOAA.NDBC:PKYF1:1,2016-06-12T09:00:00Z,24.9180,-80.7470,1.5,38.6,1111122 
ENP,ioos.station.NOAA.NDBC:PKYF1:1,2016-06-12T10:00:00Z,24.9180,-80.7470,1.5,38.6,1111122 
ENP,ioos.station.NOAA.NDBC:PKYF1:1,2016-06-12T12:00:00Z,24.9180,-80.7470,1.5,38.6,1111122 
ENP,ioos.station.NOAA.NDBC:PKYF1:1,2016-06-12T13:00:00Z,24.9180,-80.7470,1.5,38.6,1111122 
ENP,ioos.station.NOAA.NDBC:PKYF1:1,2016-06-12T14:00:00Z,24.9180,-80.7470,1.5,38.6,1111122 
ENP,ioos.station.NOAA.NDBC:PKYF1:1,2016-06-12T15:00:00Z,24.9180,-80.7470,1.5,38.6,1111122 
ENP,ioos.station.NOAA.NDBC:PKYF1:1,2016-06-12T16:00:00Z,24.9180,-80.7470,1.5,38.6,1111122 
ENP,ioos.station.NOAA.NDBC:PKYF1:1,2016-06-12T17:00:00Z,24.9180,-80.7470,1.5,38.6,1111122 
ENP,ioos.station.NOAA.NDBC:PKYF1:1,2016-06-12T18:00:00Z,24.9180,-80.7470,1.5,38.52,1111122 
ENP,ioos.station.NOAA.NDBC:PKYF1:1,2016-06-12T19:00:00Z,24.9180,-80.7470,1.5,38.52,1111122 
ENP,ioos.station.NOAA.NDBC:PKYF1:1,2016-06-12T20:00:00Z,24.9180,-80.7470,1.5,38.52,1111122 
ENP,ioos.station.NOAA.NDBC:PKYF1:1,2016-06-12T21:00:00Z,24.9180,-80.7470,1.5,38.52,1111122 
ENP,ioos.station.NOAA.NDBC:PKYF1:1,2016-06-12T22:00:00Z,24.9180,-80.7470,1.5,38.52,1111122 
ENP,ioos.station.NOAA.NDBC:PKYF1:1,2016-06-12T23:00:00Z,24.9180,-80.7470,1.5,38.52,1111122 
ENP,ioos.station.NOAA.NDBC:PKYF1:1,2016-06-13T00:00:00Z,24.9180,-80.7470,1.5,38.15,1111122 
ENP,ioos.station.NOAA.NDBC:PKYF1:1,2016-06-13T01:00:00Z,24.9180,-80.7470,1.5,38.22,1111122 
ENP,ioos.station.NOAA.NDBC:PKYF1:1,2016-06-13T02:00:00Z,24.9180,-80.7470,1.5,38.15,1111122 
ENP,ioos.station.NOAA.NDBC:PKYF1:1,2016-06-13T04:00:00Z,24.9180,-80.7470,1.5,38.22,1111122 
ENP,ioos.station.NOAA.NDBC:PKYF1:1,2016-06-13T05:00:00Z,24.9180,-80.7470,1.5,38.3,1111122 
ENP,ioos.station.NOAA.NDBC:PKYF1:1,2016-06-13T07:00:00Z,24.9180,-80.7470,1.5,38.3,1111122 
ENP,ioos.station.NOAA.NDBC:PKYF1:1,2016-06-13T08:00:00Z,24.9180,-80.7470,1.5,38.3,1111122 
ENP,ioos.station.NOAA.NDBC:PKYF1:1,2016-06-13T09:00:00Z,24.9180,-80.7470,1.5,38.22,1111122 
ENP,ioos.station.NOAA.NDBC:PKYF1:1,2016-06-13T11:00:00Z,24.9180,-80.7470,1.5,38.22,1111122 
ENP,ioos.station.NOAA.NDBC:PKYF1:1,2016-06-13T12:00:00Z,24.9180,-80.7470,1.5,38.22,1111122 
ENP,ioos.station.NOAA.NDBC:PKYF1:1,2016-06-13T13:00:00Z,24.9180,-80.7470,1.5,38.22,1111122 
ENP,ioos.station.NOAA.NDBC:PKYF1:1,2016-06-13T14:00:00Z,24.9180,-80.7470,1.5,38.22,1111122 
ENP,ioos.station.NOAA.NDBC:PKYF1:1,2016-06-13T15:00:00Z,24.9180,-80.7470,1.5,38.22,1111122 
ENP,ioos.station.NOAA.NDBC:PKYF1:1,2016-06-13T16:00:00Z,24.9180,-80.7470,1.5,38.22,1111122 
ENP,ioos.station.NOAA.NDBC:PKYF1:1,2016-06-13T17:00:00Z,24.9180,-80.7470,1.5,38.22,1111122 
ENP,ioos.station.NOAA.NDBC:PKYF1:1,2016-06-13T18:00:00Z,24.9180,-80.7470,1.5,38.22,1111122 
ENP,ioos.station.NOAA.NDBC:PKYF1:1,2016-06-13T19:00:00Z,24.9180,-80.7470,1.5,38.22,1111122 
ENP,ioos.station.NOAA.NDBC:PKYF1:1,2016-06-13T20:00:00Z,24.9180,-80.7470,1.5,38.22,1111122 
ENP,ioos.station.NOAA.NDBC:PKYF1:1,2016-06-13T21:00:00Z,24.9180,-80.7470,1.5,38.3,1111122 
ENP,ioos.station.NOAA.NDBC:PKYF1:1,2016-06-13T22:00:00Z,24.9180,-80.7470,1.5,38.3,1111122 
ENP,ioos.station.NOAA.NDBC:PKYF1:1,2016-06-13T23:00:00Z,24.9180,-80.7470,1.5,38.3,1111122 